Previsão horária em Alia

Hoje, 22 Janeiro, Sexta-feira

Tempo Temperatura Precipitação Vento Pressão Humidade
00:00 +5°C° 0 mm 3 m/s 711 mmHg 89%
01:00 +5°C° 0 mm 3 m/s 711 mmHg 90%
02:00 +5°C° 0 mm 3 m/s 710 mmHg 90%
03:00 +5°C° 0 mm 3 m/s 710 mmHg 91%
04:00 +5°C° 0 mm 3 m/s 709 mmHg 92%
05:00 +5°C° 0 mm 2 m/s 709 mmHg 92%
06:00 +5°C° 0 mm 2 m/s 709 mmHg 92%
07:00 +5°C° 0 mm 2 m/s 709 mmHg 92%
08:00 +7°C° 0 mm 2 m/s 709 mmHg 87%
09:00 +9°C° 0 mm 3 m/s 710 mmHg 82%
10:00 +10°C° 0 mm 3 m/s 710 mmHg 76%
11:00 +11°C° 0 mm 3 m/s 710 mmHg 74%
12:00 +11°C° 0 mm 4 m/s 709 mmHg 71%
13:00 +12°C° 0 mm 4 m/s 709 mmHg 68%
14:00 +11°C° 0 mm 4 m/s 708 mmHg 70%
15:00 +11°C° 0 mm 4 m/s 707 mmHg 71%
16:00 +10°C° 0 mm 4 m/s 707 mmHg 73%
17:00 +8°C° 0 mm 4 m/s 706 mmHg 79%
18:00 +7°C° 0 mm 4 m/s 706 mmHg 85%
19:00 +6°C° 0 mm 4 m/s 705 mmHg 90%
20:00 +7°C° 0 mm 3 m/s 705 mmHg 91%
21:00 +7°C° 0 mm 3 m/s 705 mmHg 92%
22:00 +7°C° 0 mm 3 m/s 705 mmHg 93%
23:00 +7°C° 0 mm 3 m/s 704 mmHg 93%

Amanhã, 23 Janeiro, Sábado

Tempo Temperatura Precipitação Vento Pressão Humidade
00:00 +6°C° 0 mm 4 m/s 704 mmHg 92%
01:00 +6°C° 0 mm 4 m/s 703 mmHg 92%
02:00 +7°C° 0 mm 3 m/s 703 mmHg 92%
03:00 +7°C° 0 mm 3 m/s 703 mmHg 93%
04:00 +7°C° 0 mm 3 m/s 702 mmHg 93%
05:00 +7°C° 2.2 mm 3 m/s 702 mmHg 92%
06:00 +7°C° 2.2 mm 2 m/s 702 mmHg 91%
07:00 +7°C° 2.2 mm 2 m/s 702 mmHg 90%
08:00 +7°C° 0.2 mm 3 m/s 703 mmHg 88%
09:00 +7°C° 0.2 mm 4 m/s 703 mmHg 85%
10:00 +8°C° 0.2 mm 4 m/s 703 mmHg 82%
11:00 +8°C° 0.2 mm 5 m/s 703 mmHg 79%
12:00 +9°C° 0.2 mm 6 m/s 703 mmHg 76%
13:00 +9°C° 0.2 mm 6 m/s 704 mmHg 73%
14:00 +9°C° 0.1 mm 6 m/s 703 mmHg 74%
15:00 +8°C° 0.1 mm 6 m/s 703 mmHg 75%
16:00 +8°C° 0.1 mm 6 m/s 703 mmHg 76%
17:00 +7°C° 0 mm 5 m/s 703 mmHg 80%
18:00 +5°C° 0 mm 4 m/s 703 mmHg 85%
19:00 +4°C° 0 mm 3 m/s 703 mmHg 89%
20:00 +4°C° 0.1 mm 3 m/s 704 mmHg 90%
21:00 +4°C° 0.1 mm 3 m/s 704 mmHg 91%
22:00 +5°C° 0.1 mm 3 m/s 704 mmHg 92%
23:00 +4°C° 0 mm 3 m/s 704 mmHg 92%

Depois de amanhã, 24 Janeiro, Domingo

Tempo Temperatura Precipitação Vento Pressão Humidade
00:00 +4°C° 0 mm 3 m/s 704 mmHg 92%
01:00 +4°C° 0 mm 3 m/s 704 mmHg 93%
02:00 +4°C° 0 mm 3 m/s 704 mmHg 93%
03:00 +4°C° 0 mm 3 m/s 703 mmHg 93%
04:00 +5°C° 0 mm 3 m/s 703 mmHg 94%
05:00 +5°C° 0 mm 3 m/s 703 mmHg 94%
06:00 +5°C° 0 mm 3 m/s 703 mmHg 94%
07:00 +5°C° 0 mm 3 m/s 703 mmHg 94%
08:00 +6°C° 0.1 mm 4 m/s 703 mmHg 88%
09:00 +7°C° 0.1 mm 5 m/s 702 mmHg 83%
10:00 +8°C° 0.1 mm 7 m/s 702 mmHg 77%
11:00 +9°C° 0.1 mm 8 m/s 701 mmHg 76%
12:00 +8°C° 0.1 mm 9 m/s 701 mmHg 75%
13:00 +8°C° 0.1 mm 10 m/s 700 mmHg 74%
14:00 +7°C° 1.1 mm 9 m/s 699 mmHg 80%
15:00 +7°C° 1.1 mm 8 m/s 699 mmHg 86%
16:00 +6°C° 1.1 mm 7 m/s 698 mmHg 92%
17:00 +6°C° 0.2 mm 7 m/s 699 mmHg 91%
18:00 +7°C° 0.2 mm 6 m/s 699 mmHg 89%
19:00 +7°C° 0.2 mm 6 m/s 700 mmHg 88%
20:00 +5°C° 0 mm 6 m/s 700 mmHg 87%
21:00 +5°C° 0 mm 5 m/s 701 mmHg 87%
22:00 +4°C° 0 mm 4 m/s 701 mmHg 86%
23:00 +3°C° 0 mm 4 m/s 701 mmHg 86%

25 Janeiro, Segunda-feira

Tempo Temperatura Precipitação Vento Pressão Humidade
00:00 +3°C° 0 mm 4 m/s 702 mmHg 85%
01:00 +2°C° 0 mm 3 m/s 702 mmHg 84%
02:00 +2°C° 0 mm 3 m/s 703 mmHg 83%
03:00 +2°C° 0 mm 3 m/s 703 mmHg 83%
04:00 +3°C° 0 mm 2 m/s 703 mmHg 83%
05:00 +3°C° 0 mm 2 m/s 703 mmHg 83%
06:00 +3°C° 0 mm 2 m/s 704 mmHg 83%
07:00 +3°C° 0 mm 2 m/s 704 mmHg 84%
08:00 +4°C° 0 mm 3 m/s 705 mmHg 82%
09:00 +5°C° 0 mm 4 m/s 705 mmHg 81%
10:00 +7°C° 0 mm 5 m/s 706 mmHg 79%
11:00 +7°C° 0.1 mm 5 m/s 706 mmHg 77%
12:00 +8°C° 0.1 mm 6 m/s 706 mmHg 76%
13:00 +9°C° 0.1 mm 6 m/s 706 mmHg 74%
14:00 +8°C° 0.1 mm 6 m/s 706 mmHg 75%
15:00 +8°C° 0.1 mm 5 m/s 706 mmHg 75%
16:00 +7°C° 0.1 mm 4 m/s 706 mmHg 76%
17:00 +6°C° 0 mm 4 m/s 706 mmHg 78%
18:00 +5°C° 0 mm 3 m/s 706 mmHg 80%
19:00 +3°C° 0 mm 3 m/s 707 mmHg 82%
20:00 +3°C° 0 mm 3 m/s 707 mmHg 81%
21:00 +3°C° 0 mm 3 m/s 707 mmHg 80%
22:00 +2°C° 0 mm 3 m/s 707 mmHg 79%
23:00 +2°C° 0 mm 3 m/s 707 mmHg 79%

26 Janeiro, Terça-feira

Tempo Temperatura Precipitação Vento Pressão Humidade
00:00 +3°C° 0 mm 2 m/s 708 mmHg 79%
01:00 +3°C° 0 mm 2 m/s 708 mmHg 78%
02:00 +3°C° 0 mm 2 m/s 707 mmHg 79%
03:00 +3°C° 0 mm 2 m/s 707 mmHg 79%
04:00 +3°C° 0 mm 2 m/s 707 mmHg 80%
05:00 +3°C° 0 mm 2 m/s 708 mmHg 80%
06:00 +3°C° 0 mm 2 m/s 708 mmHg 80%
07:00 +3°C° 0 mm 2 m/s 708 mmHg 80%
08:00 +3°C° 0.1 mm 3 m/s 708 mmHg 77%
09:00 +4°C° 0.1 mm 3 m/s 709 mmHg 74%
10:00 +5°C° 0.1 mm 4 m/s 709 mmHg 72%
11:00 +6°C° 0.1 mm 4 m/s 709 mmHg 69%
12:00 +6°C° 0.1 mm 5 m/s 709 mmHg 67%
13:00 +7°C° 0.1 mm 5 m/s 709 mmHg 64%
14:00 +6°C° 0.3 mm 5 m/s 709 mmHg 67%
15:00 +6°C° 0.3 mm 4 m/s 709 mmHg 70%
16:00 +6°C° 0.3 mm 4 m/s 709 mmHg 73%
17:00 +5°C° 0.2 mm 3 m/s 709 mmHg 78%
18:00 +3°C° 0.2 mm 3 m/s 709 mmHg 83%
19:00 +2°C° 0.2 mm 3 m/s 709 mmHg 88%
20:00 +3°C° 0 mm 2 m/s 709 mmHg 88%
21:00 +3°C° 0 mm 2 m/s 709 mmHg 88%
22:00 +3°C° 0 mm 2 m/s 709 mmHg 88%
23:00 +3°C° 0 mm 2 m/s 709 mmHg 88%

27 Janeiro, Quarta-feira

Tempo Temperatura Precipitação Vento Pressão Humidade
00:00 +3°C° 0 mm 2 m/s 710 mmHg 88%
01:00 +3°C° 0 mm 2 m/s 710 mmHg 87%
02:00 +2°C° 0 mm 2 m/s 709 mmHg 87%
03:00 +3°C° 0 mm 1 m/s 709 mmHg 86%
04:00 +3°C° 0 mm 1 m/s 709 mmHg 86%
05:00 +3°C° 0 mm 1 m/s 709 mmHg 84%
06:00 +3°C° 0 mm 1 m/s 709 mmHg 83%
07:00 +3°C° 0 mm 1 m/s 709 mmHg 82%
08:00 +5°C° 0 mm 1 m/s 709 mmHg 78%
09:00 +6°C° 0 mm 1 m/s 710 mmHg 74%
10:00 +8°C° 0 mm 1 m/s 710 mmHg 71%
11:00 +7°C° 0 mm 2 m/s 710 mmHg 71%
12:00 +8°C° 0 mm 2 m/s 709 mmHg 72%
13:00 +8°C° 0 mm 2 m/s 709 mmHg 72%
14:00 +8°C° 0 mm 2 m/s 709 mmHg 75%
15:00 +8°C° 0 mm 2 m/s 708 mmHg 78%
16:00 +8°C° 0 mm 2 m/s 708 mmHg 81%
17:00 +8°C° 0.1 mm 2 m/s 708 mmHg 84%
18:00 +8°C° 0.1 mm 1 m/s 707 mmHg 86%
19:00 +7°C° 0.1 mm 1 m/s 707 mmHg 89%
20:00 +7°C° 0.1 mm 1 m/s 707 mmHg 90%
21:00 +6°C° 0.1 mm 2 m/s 707 mmHg 91%
22:00 +5°C° 0.1 mm 2 m/s 707 mmHg 92%
23:00 +6°C° 0.1 mm 2 m/s 708 mmHg 92%
Mostrar mais

Necessitamos do seu Consentimento

A Meteoprog e os seus Fornecedores de Serviços podem armazenar e aceder a dados pessoais como cookies, identificadores do dispositivo ou outras tecnologias semelhantes existentes no seu dispositivo e processar estes dados para personalizar conteúdos e anúncios, assim como funcionalidades nas redes sociais e análise de tráfego.

  • Armazenar e/ou aceder a informações no seu dispositivo

    Os cookies, identificadores do dispositivo ou outras informações podem ser armazenados ou acedidos no seu dispositivo, para os fins acima indicados.

  • Anúncios e conteúdos personalizados, medição de anúncios e conteúdos, dados sobre o público-alvo e desenvolvimento de produtos

    Os anúncios e os conteúdos podem ser personalizados com base num perfil. Podem ser adicionados dados adicionais para uma maior personalização dos anúncios e dos conteúdos. A eficácia dos anúncios e dos conteúdos pode ser medida. Podem ser obtidas informações sobre o público que visualizou os anúncios e os conteúdos. Estes dados podem ser usados para desenvolver ou melhorar sistemas, softwares ou a experiência do utilizador.

Ao clicar em "Eu concordo”, permitirá o uso de cookies, identificadores do dispositivo e web beacons mencionados ou outras tecnologias semelhantes. As configurações do navegador do seu dispositivo podem ser alteradas.

Para certos fins, podem ser invocados interesses legítimos ao invés de consentimento. Pode ler mais informação sobre este assunto na nossa Política de Privacidade e Cookies.